Regional Weather Roundup
Issued by NWS State College, PA

Home | Current Version | Previous Version | Text Only | Print | Product List | Glossary On
Versions: 1 2 3 4 5 6 7 8 9 10 11 12 13 14 15 16 17 18 19 20 21 22 23 24 25 26 27 28 29 30 31 32 33 34 35 36 37 38 39 40 41 42 43 44 45 46 47 48 49 50
000
ASUS41 KCTP 041010
RWRCTP

REGIONAL WEATHER ROUNDUP
NATIONAL WEATHER SERVICE STATE COLLEGE PA
600 AM EDT MON MAY 04 2015

Note: "fair" indicates few or no clouds below 12,000 feet with no
significant weather and/or obstructions to visibility.

* = STATION THAT DOES NOT REPORT PRECIPITATION /E.G. RAIN...SNOW...ETC/
    THUNDER OR FOG.

PAZ002>004-007>009-013>016-020>023-029>032-041100-
WESTERN PENNSYLVANIA

CITY           SKY/WX    TMP DP  RH WIND       PRES   REMARKS
ERIE           CLEAR     61  40  45 S8        30.09R
MEADVILLE      PTCLDY    60  39  45 S5        30.13R
FRANKLIN*      PTCLDY    54  37  54 S7        30.16S
NEW CASTLE     FAIR      54  44  68 CALM      30.15S
BEAVER COUNTY  NOT AVBL
BUTLER*        CLEAR     48  41  76 CALM      30.18R
PITTSBURGH INT PTCLDY    50  42  74 CALM      30.15S
PITTSBURGH     CLEAR     55  38  52 S9        30.16R
INDIANA*       PTCLDY    46  43  87 E3        30.21S
LATROBE        CLEAR     46  45  93 CALM      30.19S
WASHINGTON CO* CLEAR     43  39  87 CALM      30.18R
$$

PAZ004>006-010>012-017>019-024>028-033>037-041-042-045-046-049>053-041100-
CENTRAL PENNSYLVANIA

CITY           SKY/WX    TMP DP  RH WIND       PRES   REMARKS
BRADFORD       MOCLDY    46  38  73 VRB3      30.18R
DUBOIS         CLEAR     59  38  45 S3        30.17R
CLEARFIELD     CLEAR     46  39  76 CALM      30.19R
JOHNSTOWN      CLEAR     56  36  47 SW6       30.20R
ALTOONA        CLEAR     51  40  65 S3        30.19S
STATE COLLEGE  CLEAR     52  41  66 S5        30.18S
WILLIAMSPORT   CLEAR     48  41  76 NW3       30.18R
SELINSGROVE    CLEAR     44  43  96 CALM      30.18R
FT INDIANTOWN  CLEAR     48  43  82 CALM      30.18S
CAPITAL CITY   PTCLDY    51  45  79 CALM      30.18S
HARRISBURG     PTCLDY    53  47  79 CALM      30.18R
YORK           MOCLDY    48  45  89 CALM      30.18R
$$

PAZ038>040-043-044-047-048-054-055-060>062-067>071-041100-
EASTERN PENNSYLVANIA

CITY           SKY/WX    TMP DP  RH WIND       PRES   REMARKS
SCRANTON       CLEAR     52  38  58 CALM      30.18R
MOUNT POCONO   CLEAR     50  38  63 W5        30.20R
ALLENTOWN      PTCLDY    48  42  80 CALM      30.18R
QUAKERTOWN*    SUNNY     45  41  87 CALM      30.19S
READING        CLEAR     51  45  79 N3        30.18R
LANCASTER      PTCLDY    51  44  77 CALM      30.18R
COATESVILLE    SUNNY     59  46  63 SW5       30.20R
POTTSTOWN      CLEAR     49  45  86 CALM      30.20R
BLUE BELL      CLEAR     50  46  87 CALM      30.19R
DOYLESTOWN     CLEAR     49  46  90 CALM      30.18R
WILLOW GROVE   NOT AVBL
NORTH PHILA    CLEAR     53  43  68 CALM      30.20R
PHILADELPHIA   PTCLDY    56  48  74 SW3       30.20R
$$


USA.gov is the U.S. government's official web portal to all federal, state and local government web resources and services.